GFSSW_con_3kmhel_324.txt.gz
Helicity
37 42 44 51 51 53 52 50 49 52 44 45 40 46 64 81 42 41 35 52 74 116 96 66 23 84 42 56 74 76 108 95 74 70 60 62 93 116 124 132 115 93 88 97 82
39 46 52 49 48 46 45 42 45 40 42 41 44 44 43 48 21 38 54 93 82 76 64 97 86 116 72 84 89 85 94 87 75 91 90 128 115 108 120 147 152 181 189 168 151
34 37 44 56 54 52 52 50 50 43 37 35 42 49 43 37 31 38 109 111 94 84 46 68 86 75 89 98 109 87 84 96 136 130 116 133 159 128 140 105 81 98 156 178 185
36 36 44 48 49 48 46 44 49 48 44 39 45 51 54 33 62 38 118 119 105 91 73 78 87 96 106 110 107 109 135 110 116 143 147 145 155 161 143 118 168 206 177 194 214
34 39 42 43 46 42 38 32 33 31 27 45 50 62 46 73 56 59 93 89 59 74 93 93 113 102 120 114 116 123 117 133 134 163 186 195 178 128 175 203 252 246 234 221 226
43 46 47 45 45 44 44 28 26 25 26 36 46 46 37 50 39 77 88 87 105 96 105 121 97 109 111 109 112 94 127 116 124 143 161 165 142 173 132 194 225 225 223 226 231
40 43 38 38 39 39 31 19 22 24 26 32 46 36 56 36 40 78 85 57 90 94 82 103 102 111 94 103 120 137 133 143 118 108 132 139 140 114 171 215 223 213 206 211 209
42 47 48 46 44 36 25 11 4 2 14 26 31 32 25 21 31 52 87 60 98 90 93 94 119 125 129 109 144 147 165 123 124 139 134 154 95 150 178 226 211 217 223 224 208
30 37 52 57 59 51 22 -1 -3 12 -1 14 29 35 41 31 48 35 46 66 83 87 92 102 128 145 159 176 176 176 127 120 135 164 159 144 114 109 127 183 206 221 245 242 236
22 37 44 47 41 45 24 -14 2 43 36 19 45 52 57 59 43 58 67 86 95 123 153 168 186 192 215 218 147 128 162 171 158 158 146 135 90 108 82 172 207 279 311 286 252
20 15 26 34 32 48 25 7 34 41 69 45 45 47 66 52 53 92 107 134 132 177 180 215 223 184 191 200 211 211 216 202 182 175 143 109 126 116 158 247 331 382 394 342 310
31 30 28 29 11 37 14 16 9 9 22 51 62 75 74 91 111 144 185 157 169 181 232 269 206 216 240 252 241 248 224 202 132 149 121 145 110 96 200 242 386 483 480 460 448
36 29 22 30 -1 21 5 -2 -0 8 35 60 77 102 95 126 135 178 204 189 223 229 232 226 221 238 235 266 274 285 234 200 174 149 86 124 103 126 247 374 465 531 587 560 433
54 46 44 48 30 -1 15 2 3 3 46 54 64 50 30 41 94 111 151 152 188 172 206 236 210 223 250 308 247 289 170 174 184 176 197 151 49 74 205 316 391 502 564 536 409
56 60 67 51 -4 13 8 -1 8 28 64 55 38 11 27 70 53 98 99 148 181 188 196 193 213 228 240 239 200 249 192 195 195 198 197 232 201 96 222 225 295 396 476 401 286
76 72 72 57 26 9 10 16 27 83 43 119 66 67 71 70 95 106 149 168 148 179 195 190 150 201 219 230 221 149 250 259 246 245 260 177 208 149 83 79 195 306 374 317 294
85 103 78 67 35 33 17 30 92 92 106 96 96 60 58 78 109 146 161 177 175 197 166 170 180 157 174 259 288 297 310 304 271 345 273 249 225 255 223 243 171 206 243 308 311
142 123 88 54 69 62 42 93 124 115 107 126 118 113 102 119 131 143 167 173 184 232 200 155 163 180 213 268 223 261 290 277 249 280 245 231 263 224 244 306 291 345 364 333 251
141 101 87 71 89 98 131 156 110 84 107 106 102 125 119 104 110 132 119 165 159 181 201 231 194 241 260 251 260 207 275 316 319 254 253 279 328 297 412 448 440 340 263 213 192
167 133 124 166 140 168 208 210 148 116 136 138 99 111 109 116 109 100 91 126 152 179 253 246 210 248 303 303 355 363 296 348 435 352 294 309 260 258 213 241 310 261 254 255 220
139 156 167 217 214 304 273 238 174 148 187 144 120 152 151 156 154 176 192 223 250 272 311 298 273 248 314 248 262 363 416 477 434 458 432 369 230 266 263 248 255 301 304 278 272
225 211 234 251 293 288 293 207 206 181 206 201 250 218 240 191 177 209 257 247 269 282 233 283 362 306 193 306 336 391 392 462 456 410 472 485 370 569 568 503 451 439 398 303 198
236 300 338 286 312 285 202 227 235 285 248 205 224 196 266 253 233 252 271 339 354 336 265 291 332 301 242 293 373 375 355 397 465 456 430 454 580 515 566 523 440 408 334 266 166
242 264 257 296 347 296 288 268 299 243 264 296 306 350 346 323 329 283 340 277 289 361 380 435 432 392 288 355 336 309 301 338 378 430 432 463 369 524 418 396 288 237 146 68 34
247 255 282 281 244 255 251 250 253 249 274 317 323 389 371 319 374 390 438 477 424 367 404 407 360 345 309 301 319 300 330 328 393 381 411 266 313 328 382 327 190 102 140 174 180
262 328 380 297 328 237 236 295 308 396 341 324 404 406 384 359 359 314 430 418 363 287 313 364 421 397 354 308 261 257 265 346 301 273 327 271 282 296 219 183 201 194 195 195 174
350 381 287 202 391 356 353 344 248 376 362 379 305 371 319 354 424 410 365 352 365 354 316 381 401 382 306 249 284 309 248 197 329 368 298 277 252 285 264 213 148 117 125 138 143

GFSSW_con_3kmhel_327.txt.gz
Helicity
39 43 43 43 47 49 48 50 52 60 59 55 56 54 59 65 53 41 29 40 56 116 103 72 32 45 35 59 79 85 100 98 81 118 84 120 133 149 125 132 99 91 67 74 119
33 42 51 55 52 48 46 43 43 44 47 47 46 44 48 61 28 39 30 87 89 88 63 68 54 70 68 74 84 94 89 49 73 84 95 131 125 130 103 129 118 128 141 160 152
30 35 41 42 46 50 48 51 53 45 41 36 34 45 50 39 36 36 85 108 106 83 48 49 51 61 95 108 106 98 78 75 104 109 124 152 175 142 157 99 67 71 128 168 181
23 28 36 36 35 35 38 44 41 44 43 35 44 52 54 38 59 33 108 126 111 78 56 63 77 102 120 126 122 128 143 141 129 153 149 151 168 176 172 128 121 227 196 206 235
29 28 27 28 27 31 36 29 23 27 26 31 43 59 51 65 57 53 99 83 65 71 90 82 102 106 119 126 133 142 133 171 166 171 198 200 194 141 183 190 270 291 267 253 252
34 34 28 25 24 28 30 18 17 18 22 28 44 45 38 61 35 61 96 78 103 88 92 106 83 88 126 147 147 138 166 170 154 167 178 177 156 182 147 196 281 279 262 238 219
40 35 32 27 26 27 18 9 11 10 14 23 44 35 46 34 40 66 82 51 88 98 103 114 113 125 110 127 133 147 173 183 166 159 170 158 144 130 156 204 245 253 250 245 231
36 47 48 48 35 31 19 -1 -5 -5 5 6 31 32 32 32 35 55 91 58 95 92 97 106 124 130 145 141 177 154 168 133 148 168 173 196 113 150 180 237 233 226 216 214 222
18 36 50 54 39 35 14 -5 -22 -8 -11 -2 26 29 44 40 55 52 58 66 90 87 97 114 131 148 182 201 196 210 148 148 146 175 183 187 133 147 170 208 208 195 203 218 240
24 19 22 38 42 52 34 -10 -4 28 36 17 48 59 76 52 33 38 48 72 81 95 111 144 173 190 223 242 174 159 191 183 178 169 207 201 125 149 110 163 174 222 242 245 236
29 32 30 29 34 40 39 30 47 42 88 56 51 51 55 51 36 80 81 116 117 148 154 180 198 155 124 185 223 201 211 199 238 271 214 160 161 151 145 207 265 295 305 286 277
48 45 39 34 29 36 17 32 24 28 36 63 56 62 57 62 75 100 135 128 161 165 186 221 173 195 215 248 243 246 234 231 259 258 243 237 157 125 213 224 295 364 364 370 420
61 65 56 51 21 35 8 -2 -1 4 42 66 68 73 69 87 88 105 131 122 166 180 207 198 198 209 236 252 252 258 234 232 242 220 192 192 144 209 329 366 334 359 394 461 444
58 71 67 73 61 10 20 -19 -7 5 42 50 64 46 34 29 61 27 60 78 115 119 137 152 165 186 201 200 206 191 191 212 226 229 190 209 87 122 193 269 324 392 460 491 449
79 80 88 101 41 42 9 -4 -4 17 52 70 60 15 20 42 42 55 52 85 108 116 133 134 138 148 173 180 189 193 189 205 200 228 238 269 233 84 285 236 265 369 375 374 324
81 93 95 88 77 43 23 9 16 100 47 120 91 97 80 58 48 57 96 118 115 150 179 168 158 171 187 191 189 138 206 173 171 183 230 192 233 126 124 151 225 269 236 271 328
97 96 97 113 81 52 52 14 95 106 122 125 131 105 55 68 91 111 126 134 129 143 124 150 168 191 216 277 289 280 272 218 218 299 278 293 266 301 213 216 202 186 242 296 323
107 108 95 116 98 71 69 92 127 118 94 104 103 78 88 91 85 102 121 131 128 191 188 154 182 178 224 263 218 262 299 282 220 237 247 318 240 238 266 272 223 224 272 288 266
145 121 99 155 111 95 140 149 124 69 106 100 112 102 115 96 97 107 86 119 106 147 140 173 187 230 239 246 267 235 302 349 417 328 296 326 380 319 371 371 336 253 229 181 211
74 127 126 148 173 167 184 206 162 126 186 175 95 103 90 95 95 89 77 80 94 117 197 171 197 233 252 277 336 355 313 388 443 339 326 368 318 298 280 263 290 226 163 223 313
263 139 256 241 198 269 235 222 199 188 230 168 138 184 139 125 132 149 152 171 190 233 251 252 287 247 300 232 291 392 449 512 444 482 476 427 324 333 308 273 232 329 369 361 307
369 290 326 337 320 296 328 266 162 192 204 187 198 195 208 171 158 197 200 185 230 226 236 251 263 301 207 319 369 407 385 497 463 405 553 575 401 442 400 403 391 403 378 370 283
283 320 419 347 411 434 287 264 229 241 167 152 175 198 216 195 205 171 207 279 286 288 219 248 320 345 285 336 413 377 409 467 524 540 443 522 475 429 473 470 448 421 400 368 286
260 332 351 398 434 308 354 229 266 217 214 247 241 264 277 254 284 259 290 273 306 360 415 377 409 426 360 384 339 320 314 376 462 512 476 485 475 450 309 363 377 364 290 242 186
333 259 254 274 246 293 274 217 250 238 222 224 226 277 351 250 310 339 371 400 391 390 476 490 390 420 366 323 320 315 359 393 433 409 518 363 335 330 362 378 333 244 178 131 108
265 356 360 313 330 241 266 258 274 327 304 277 274 261 327 290 338 277 334 355 354 386 478 516 427 413 338 266 249 226 301 368 331 289 291 266 277 380 324 253 202 153 158 167 162
352 340 332 218 372 416 380 378 217 379 286 309 249 306 308 337 351 346 341 374 368 353 402 428 442 393 329 329 321 338 347 302 430 430 317 290 255 268 307 291 260 226 181 160 168

GFSSW_con_3kmhel_333.txt.gz
Helicity
14 13 17 26 36 41 43 35 32 25 23 24 28 33 41 46 33 42 46 13 39 87 85 77 45 62 58 66 79 84 106 93 80 148 134 188 189 182 168 153 151 143 100 87 210
19 20 17 17 20 25 32 38 35 35 33 28 29 31 33 44 31 53 11 60 60 70 46 56 49 75 69 65 84 95 76 32 54 94 100 150 129 168 130 150 124 144 163 171 197
32 25 18 16 18 17 21 28 32 30 31 34 38 41 42 28 37 40 74 86 74 56 28 38 49 59 73 74 79 76 57 66 80 110 130 200 198 168 167 122 91 89 137 169 197
6 17 19 15 14 14 15 18 17 23 28 29 34 49 52 41 61 30 83 92 75 46 48 62 75 86 90 87 95 102 102 109 119 128 170 180 209 182 178 139 117 104 185 220 227
24 16 11 13 8 11 9 7 10 16 25 30 36 45 47 73 66 59 94 65 36 51 81 92 99 102 107 105 122 127 108 151 156 184 220 252 226 152 168 171 183 229 245 246 263
13 18 20 20 18 9 4 -3 -1 3 10 22 30 39 46 62 48 59 85 65 85 86 76 98 97 109 129 138 141 140 167 158 164 187 206 232 218 219 173 191 233 267 274 264 252
10 13 15 15 23 11 5 1 -9 -5 1 13 30 42 52 45 49 59 72 49 71 78 93 93 86 112 108 139 132 163 194 176 169 178 191 207 214 177 191 214 260 276 279 287 278
30 32 29 31 27 15 10 0 -18 -7 8 17 33 41 42 50 44 66 85 55 79 67 74 82 105 131 150 137 173 163 181 153 168 192 207 242 142 234 238 267 269 284 299 303 295
26 27 32 37 42 27 27 5 -15 7 25 40 60 51 53 59 78 66 77 72 64 60 79 95 126 140 159 158 149 171 113 122 138 166 208 217 136 188 237 254 280 269 282 293 309
45 48 50 49 47 39 25 12 21 43 52 61 83 79 97 69 60 63 45 64 72 64 83 108 137 151 182 197 145 126 151 141 143 143 198 204 142 160 132 196 216 258 273 272 267
51 56 57 60 69 48 40 21 39 40 96 82 91 99 101 61 47 55 71 84 92 124 100 139 148 129 96 152 190 172 156 143 141 163 156 153 146 152 151 173 204 208 215 218 212
53 56 64 68 70 52 34 45 23 46 45 65 79 97 86 79 107 100 138 103 114 131 160 188 139 148 172 168 163 169 165 150 153 147 148 175 128 130 247 208 186 213 207 221 266
49 60 65 76 57 82 54 34 23 18 62 94 114 109 115 123 113 119 143 132 144 131 124 142 154 145 154 173 183 184 184 176 170 158 178 157 111 185 248 266 212 204 224 282 349
69 67 71 77 98 78 86 51 32 11 97 120 140 98 93 82 92 50 41 70 117 106 119 123 132 126 145 144 156 158 164 191 190 184 158 179 88 121 158 188 205 245 317 373 410
89 101 104 111 117 134 107 72 49 42 156 102 100 65 93 114 102 98 42 54 63 69 91 104 100 106 118 131 145 148 157 180 183 200 197 238 173 88 238 173 104 281 340 408 441
118 116 101 135 128 125 165 119 109 171 202 171 118 114 148 161 142 99 85 93 80 96 129 128 120 124 137 152 157 104 181 180 169 185 214 185 226 95 173 184 176 214 246 293 316
147 163 146 161 153 174 269 217 256 342 230 184 172 142 148 149 123 110 99 103 87 102 89 121 146 168 169 226 222 225 224 200 189 252 200 215 215 270 197 210 199 186 191 240 295
186 266 222 208 275 214 220 317 430 340 242 227 193 173 203 121 134 123 126 124 114 163 153 121 141 140 147 189 147 184 204 208 167 184 185 220 186 163 206 226 217 200 217 300 329
391 327 240 252 254 210 263 209 258 309 233 191 187 149 151 166 144 129 109 136 129 144 141 146 139 142 177 196 220 186 253 243 280 235 210 222 258 232 320 331 289 267 285 280 316
353 298 294 250 261 226 300 209 300 217 251 170 154 136 162 179 184 150 156 117 109 113 143 142 163 191 220 242 269 244 247 281 327 220 222 208 196 234 230 182 200 243 263 275 301
412 264 344 306 352 347 333 311 231 318 164 163 227 318 216 163 185 238 237 216 194 192 190 174 217 215 255 181 215 294 324 369 314 353 279 252 224 185 183 204 186 205 192 230 267
343 325 287 377 412 339 349 338 323 209 336 318 333 195 139 179 191 220 223 205 180 178 186 194 195 209 178 256 292 332 309 382 368 312 413 471 341 355 298 268 222 252 278 312 328
283 324 457 433 327 437 375 335 325 369 344 304 253 241 270 232 254 239 238 246 289 265 180 175 216 255 208 254 313 284 357 413 465 420 361 464 434 371 356 304 225 185 261 340 379
204 249 268 402 401 289 282 350 331 278 368 457 376 459 367 294 231 217 224 207 235 212 273 259 303 317 228 201 251 270 295 326 382 459 546 499 454 422 262 165 230 319 379 407 398
220 212 327 235 222 238 335 303 248 290 327 290 374 372 399 292 277 307 290 347 279 223 335 326 312 311 279 278 274 255 351 387 445 443 505 410 341 368 330 282 321 364 373 375 364
233 303 369 362 312 241 275 305 166 237 394 299 363 278 344 336 329 206 323 387 309 307 325 383 322 347 321 305 292 218 296 332 383 394 363 337 306 440 415 435 392 334 312 313 303
191 441 370 320 278 305 326 278 215 233 289 374 211 280 303 236 337 318 301 283 196 239 329 363 393 391 327 332 309 264 280 305 450 481 313 321 317 361 357 336 305 271 246 216 214

GFSSW_con_3kmhel_339.txt.gz
Helicity
10 14 16 12 4 1 2 8 17 14 13 18 25 33 37 43 33 17 29 80 44 56 66 48 46 65 75 82 85 99 83 38 31 28 63 207 160 276 319 272 257 291 300 201 225
11 10 10 11 12 8 5 1 2 5 12 19 20 26 37 52 38 24 108 63 52 58 50 65 46 68 70 73 84 89 48 25 104 110 96 105 102 200 216 225 186 219 235 204 163
21 18 16 15 12 7 4 3 -0 1 -0 10 21 25 26 20 29 105 91 79 65 56 47 56 59 72 60 72 73 75 46 95 92 111 104 75 57 115 177 143 117 115 182 154 145
13 17 23 25 24 27 17 4 1 -2 1 3 9 23 29 21 65 63 47 40 34 40 51 60 61 83 73 59 70 80 67 101 91 92 75 65 101 125 121 183 290 160 153 155 146
25 26 24 25 20 14 8 -1 1 -1 3 12 16 29 28 34 66 100 81 77 64 68 44 56 63 83 74 86 81 68 76 86 96 79 90 123 87 108 139 183 158 178 163 153 158
29 37 40 42 40 40 38 21 13 10 2 10 26 29 44 49 102 76 83 61 81 81 87 90 98 100 129 114 95 148 127 90 87 99 121 100 139 174 168 186 200 161 147 156 165
31 40 53 61 61 63 67 49 28 14 8 27 36 43 65 76 110 83 84 82 90 90 92 110 126 116 125 122 135 125 104 90 86 108 131 142 124 133 165 169 206 183 181 194 201
36 39 39 43 48 61 72 45 29 17 21 35 46 48 69 138 127 107 120 78 87 90 102 116 123 148 193 165 133 131 161 149 103 140 173 154 120 210 197 180 185 203 219 216 215
38 49 50 50 51 59 80 60 16 22 41 46 43 58 93 102 83 88 89 101 86 83 95 118 143 160 154 158 146 137 155 115 149 89 175 147 148 210 162 152 182 198 213 223 238
40 53 60 50 49 61 78 41 36 24 38 52 69 77 96 114 90 91 76 86 106 95 118 122 127 149 143 176 183 107 115 104 126 51 117 102 93 118 105 118 149 182 207 214 220
53 49 61 57 47 57 47 -7 16 1 44 79 57 75 97 169 139 108 145 112 146 144 141 134 167 186 108 89 62 149 147 75 90 182 95 68 56 75 121 113 130 168 190 201 209
66 56 52 46 30 19 -11 55 64 74 17 36 81 155 233 226 176 105 155 141 156 140 142 184 156 92 209 173 137 125 114 98 134 133 129 101 68 76 160 151 156 160 166 180 221
91 72 56 54 39 27 63 65 42 43 33 7 194 202 243 162 219 219 186 175 138 106 158 138 202 204 193 196 181 149 128 116 161 158 115 147 85 94 119 213 175 189 180 191 226
89 76 69 65 50 95 78 54 30 19 46 83 133 137 103 127 131 210 211 229 190 149 136 133 234 183 174 165 157 206 204 224 242 192 157 141 117 160 118 197 198 184 255 278 275
80 72 135 109 115 84 113 74 64 43 139 158 151 109 79 80 115 104 130 153 133 144 163 192 132 138 147 182 126 242 188 228 238 190 225 156 213 131 224 214 110 131 179 220 237
74 81 197 135 128 143 95 75 83 163 306 272 180 135 130 136 180 176 174 133 147 152 148 175 140 143 187 184 194 146 172 179 179 199 197 183 197 106 199 229 206 141 153 200 208
82 106 199 174 140 145 137 122 164 276 273 219 174 101 115 179 183 174 175 186 209 229 155 133 146 195 188 245 218 200 192 195 184 245 222 278 170 226 237 176 209 151 150 138 167
105 107 177 217 201 250 236 192 238 277 160 225 168 160 178 194 211 204 215 195 168 216 218 156 142 154 173 315 211 216 275 275 218 141 116 208 261 231 213 251 284 264 220 190 210
144 150 198 190 252 208 183 289 315 144 170 212 267 248 270 299 370 289 239 241 203 156 183 158 186 206 252 290 364 328 383 401 351 228 207 254 209 191 290 300 263 228 212 211 179
122 132 233 171 226 280 273 312 101 146 256 233 252 168 235 235 307 366 389 273 225 134 266 252 218 242 296 295 353 408 378 395 391 357 281 215 143 192 148 82 142 172 174 176 181
140 139 185 153 146 235 353 281 157 97 198 227 290 320 322 289 370 417 299 267 121 187 257 283 293 280 325 338 344 405 430 401 389 393 358 215 189 286 262 191 169 176 190 187 194
154 175 185 139 212 261 304 236 198 112 83 249 334 333 253 350 397 361 376 198 223 243 187 281 314 265 254 333 351 405 333 310 331 279 315 292 180 282 292 273 229 222 215 218 210
174 255 254 331 337 308 226 188 203 172 111 205 201 237 283 310 281 306 243 127 277 277 201 360 283 270 248 252 285 275 341 402 373 409 292 310 231 226 224 236 275 263 242 233 246
180 259 248 229 346 282 199 165 75 110 90 180 183 266 264 254 267 314 242 240 312 300 295 356 380 366 223 250 263 240 298 301 345 351 311 306 277 215 186 229 269 275 272 276 278
166 247 277 269 244 165 145 229 155 140 128 158 138 201 216 237 170 193 218 285 222 292 394 437 338 273 225 290 326 292 303 295 335 232 365 276 268 413 400 344 265 275 268 268 279
226 273 275 251 236 284 258 229 164 98 151 74 134 58 110 181 133 100 133 131 125 134 247 459 464 443 280 324 374 320 279 243 240 262 283 233 293 359 402 319 272 243 221 231 264
220 266 249 320 256 285 242 193 127 145 88 166 143 133 101 149 153 161 172 233 236 155 149 248 304 304 241 319 231 219 428 494 432 434 416 418 416 459 490 450 383 327 290 337 340